When you browse on this site, cookies collect data to enhance your experience and personalize the content and advertising you see.
Visit our Privacy Policy to learn more. By continuing to use the site, you agree to this use of cookies and data.
  • In France
  • List of Countries
  • For 7 days
  • Water Temperature
  • Satellite Maps
  • Weather Map
  • Weather Widgets
  • user-avatar
    Login

    Hourly Weather Gwatemala

    Today, 25 May, Saturday

    Time Temperature Precipitation Wind Pressure Humidity
    00:00 +18°C° 0 mm 1 mps 636 mmHg 90%
    01:00 +18°C° 0 mm 1 mps 636 mmHg 91%
    02:00 +18°C° 0 mm 1 mps 636 mmHg 92%
    03:00 +16°C° 0 mm 1 mps 636 mmHg 92%
    04:00 +18°C° 0 mm 1 mps 636 mmHg 92%
    05:00 +18°C° 0 mm 1 mps 636 mmHg 92%
    06:00 +18°C° 0 mm 1 mps 636 mmHg 92%
    07:00 +19°C° 0 mm 2 mps 637 mmHg 82%
    08:00 +21°C° 0 mm 2 mps 638 mmHg 72%
    09:00 +24°C° 0 mm 2 mps 639 mmHg 62%
    10:00 +26°C° 0.1 mm 2 mps 639 mmHg 58%
    11:00 +27°C° 0.1 mm 2 mps 639 mmHg 54%
    12:00 +28°C° 0.1 mm 2 mps 639 mmHg 50%
    13:00 +28°C° 0.5 mm 2 mps 639 mmHg 50%
    14:00 +28°C° 0.5 mm 2 mps 638 mmHg 50%
    15:00 +28°C° 0.5 mm 2 mps 638 mmHg 50%
    16:00 +26°C° 0.4 mm 2 mps 638 mmHg 56%
    17:00 +25°C° 0.4 mm 2 mps 637 mmHg 62%
    18:00 +23°C° 0.4 mm 2 mps 637 mmHg 67%
    19:00 +21°C° 0.1 mm 2 mps 637 mmHg 72%
    20:00 +20°C° 0.1 mm 1 mps 637 mmHg 77%
    21:00 +19°C° 0.1 mm 1 mps 637 mmHg 82%
    22:00 +19°C° 0 mm 1 mps 637 mmHg 84%
    23:00 +18°C° 0 mm 1 mps 637 mmHg 87%

    Tomorrow, 26 May, Sunday

    Time Temperature Precipitation Wind Pressure Humidity
    00:00 +18°C° 0 mm 1 mps 637 mmHg 89%
    01:00 +18°C° 0 mm 1 mps 637 mmHg 90%
    02:00 +16°C° 0 mm 1 mps 636 mmHg 91%
    03:00 +16°C° 0 mm 2 mps 636 mmHg 92%
    04:00 +16°C° 0 mm 2 mps 636 mmHg 92%
    05:00 +16°C° 0 mm 2 mps 636 mmHg 92%
    06:00 +16°C° 0 mm 2 mps 636 mmHg 93%
    07:00 +19°C° 0 mm 2 mps 637 mmHg 81%
    08:00 +21°C° 0 mm 2 mps 638 mmHg 69%
    09:00 +24°C° 0 mm 2 mps 639 mmHg 57%
    10:00 +26°C° 0 mm 2 mps 639 mmHg 51%
    11:00 +28°C° 0 mm 2 mps 640 mmHg 45%
    12:00 +29°C° 0 mm 2 mps 640 mmHg 39%
    13:00 +29°C° 0.1 mm 2 mps 639 mmHg 42%
    14:00 +28°C° 0.1 mm 2 mps 639 mmHg 44%
    15:00 +28°C° 0.1 mm 2 mps 638 mmHg 47%
    16:00 +27°C° 0.4 mm 2 mps 638 mmHg 54%
    17:00 +25°C° 0.4 mm 2 mps 637 mmHg 60%
    18:00 +23°C° 0.4 mm 1 mps 637 mmHg 67%
    19:00 +22°C° 0.2 mm 1 mps 637 mmHg 72%
    20:00 +21°C° 0.2 mm 1 mps 637 mmHg 77%
    21:00 +19°C° 0.2 mm 1 mps 637 mmHg 82%
    22:00 +19°C° 0 mm 1 mps 637 mmHg 85%
    23:00 +18°C° 0 mm 1 mps 637 mmHg 87%

    Day after tomorrow, 27 May, Monday

    Time Temperature Precipitation Wind Pressure Humidity
    00:00 +18°C° 0 mm 1 mps 637 mmHg 89%
    01:00 +16°C° 0 mm 1 mps 636 mmHg 89%
    02:00 +16°C° 0 mm 1 mps 636 mmHg 90%
    03:00 +16°C° 0 mm 1 mps 635 mmHg 90%
    04:00 +16°C° 0 mm 1 mps 635 mmHg 90%
    05:00 +16°C° 0 mm 1 mps 635 mmHg 90%
    06:00 +16°C° 0 mm 1 mps 635 mmHg 90%
    07:00 +20°C° 0 mm 1 mps 637 mmHg 78%
    08:00 +22°C° 0 mm 1 mps 638 mmHg 66%
    09:00 +25°C° 0 mm 1 mps 639 mmHg 54%
    10:00 +27°C° 0.1 mm 1 mps 639 mmHg 50%
    11:00 +28°C° 0.1 mm 1 mps 639 mmHg 46%
    12:00 +30°C° 0.1 mm 1 mps 640 mmHg 42%
    13:00 +29°C° 0.4 mm 2 mps 639 mmHg 44%
    14:00 +29°C° 0.4 mm 2 mps 638 mmHg 46%
    15:00 +28°C° 0.4 mm 2 mps 637 mmHg 49%
    16:00 +27°C° 0.9 mm 2 mps 637 mmHg 56%
    17:00 +25°C° 0.9 mm 1 mps 636 mmHg 63%
    18:00 +23°C° 0.9 mm 1 mps 636 mmHg 69%
    19:00 +22°C° 0.5 mm 1 mps 636 mmHg 74%
    20:00 +21°C° 0.5 mm 1 mps 636 mmHg 78%
    21:00 +18°C° 0.5 mm 0 mps 637 mmHg 83%
    22:00 +17°C° 0.1 mm 0 mps 636 mmHg 84%
    23:00 +19°C° 0.1 mm 1 mps 636 mmHg 86%

    28 May, Tuesday

    Time Temperature Precipitation Wind Pressure Humidity
    00:00 +19°C° 0.1 mm 1 mps 636 mmHg 87%
    01:00 +18°C° 0 mm 1 mps 635 mmHg 88%
    02:00 +18°C° 0 mm 1 mps 635 mmHg 89%
    03:00 +16°C° 0 mm 1 mps 634 mmHg 90%
    04:00 +16°C° 0 mm 1 mps 634 mmHg 89%
    05:00 +16°C° 0 mm 1 mps 634 mmHg 88%
    06:00 +16°C° 0 mm 1 mps 634 mmHg 86%
    07:00 +20°C° 0 mm 1 mps 636 mmHg 76%
    08:00 +23°C° 0 mm 1 mps 637 mmHg 65%
    09:00 +26°C° 0 mm 1 mps 638 mmHg 54%
    10:00 +27°C° 0 mm 1 mps 638 mmHg 49%
    11:00 +29°C° 0 mm 1 mps 638 mmHg 44%
    12:00 +31°C° 0 mm 1 mps 638 mmHg 40%
    13:00 +30°C° 0.4 mm 1 mps 637 mmHg 44%
    14:00 +29°C° 0.4 mm 2 mps 636 mmHg 49%
    15:00 +28°C° 0.4 mm 2 mps 636 mmHg 54%
    16:00 +27°C° 1.2 mm 2 mps 635 mmHg 61%
    17:00 +25°C° 1.2 mm 2 mps 635 mmHg 67%
    18:00 +23°C° 1.2 mm 1 mps 635 mmHg 74%
    19:00 +22°C° 2.4 mm 1 mps 635 mmHg 78%
    20:00 +21°C° 2.4 mm 1 mps 636 mmHg 83%
    21:00 +18°C° 2.4 mm 0 mps 636 mmHg 87%
    22:00 +18°C° 1.6 mm 0 mps 636 mmHg 88%
    23:00 +18°C° 1.6 mm 0 mps 636 mmHg 88%

    29 May, Wednesday

    Time Temperature Precipitation Wind Pressure Humidity
    00:00 +20°C° 1.6 mm 1 mps 635 mmHg 89%
    01:00 +17°C° 0.1 mm 0 mps 635 mmHg 90%
    02:00 +17°C° 0.1 mm 0 mps 634 mmHg 90%
    03:00 +17°C° 0.1 mm 0 mps 633 mmHg 91%
    04:00 +17°C° 0 mm 0 mps 634 mmHg 90%
    05:00 +17°C° 0 mm 0 mps 634 mmHg 90%
    06:00 +17°C° 0 mm 0 mps 634 mmHg 89%
    07:00 +19°C° 0 mm 0 mps 635 mmHg 82%
    08:00 +23°C° 0 mm 1 mps 636 mmHg 75%
    09:00 +25°C° 0 mm 1 mps 638 mmHg 68%
    10:00 +26°C° 0.6 mm 1 mps 637 mmHg 65%
    11:00 +27°C° 0.6 mm 1 mps 637 mmHg 63%
    12:00 +28°C° 0.6 mm 2 mps 637 mmHg 60%
    13:00 +28°C° 1.1 mm 2 mps 636 mmHg 64%
    14:00 +27°C° 1.1 mm 2 mps 635 mmHg 67%
    15:00 +26°C° 1.1 mm 2 mps 635 mmHg 70%
    16:00 +25°C° 1.2 mm 2 mps 635 mmHg 75%
    17:00 +24°C° 1.2 mm 2 mps 635 mmHg 79%
    18:00 +21°C° 1.2 mm 2 mps 635 mmHg 84%
    19:00 +22°C° 0.8 mm 1 mps 635 mmHg 86%
    20:00 +21°C° 0.8 mm 1 mps 635 mmHg 88%
    21:00 +21°C° 0.8 mm 1 mps 636 mmHg 91%
    22:00 +21°C° 0.7 mm 1 mps 636 mmHg 91%
    23:00 +20°C° 0.7 mm 1 mps 636 mmHg 92%

    30 May, Thursday

    Time Temperature Precipitation Wind Pressure Humidity
    00:00 +20°C° 0.7 mm 1 mps 636 mmHg 92%
    01:00 +20°C° 0.4 mm 1 mps 635 mmHg 92%
    02:00 +20°C° 0.4 mm 1 mps 635 mmHg 93%
    03:00 +19°C° 0.4 mm 1 mps 634 mmHg 93%
    04:00 +19°C° 0 mm 1 mps 634 mmHg 93%
    05:00 +19°C° 0 mm 1 mps 635 mmHg 93%
    06:00 +19°C° 0 mm 1 mps 635 mmHg 93%
    07:00 +21°C° 0 mm 1 mps 636 mmHg 87%
    08:00 +22°C° 0 mm 1 mps 637 mmHg 80%
    09:00 +24°C° 0 mm 1 mps 637 mmHg 74%
    10:00 +25°C° 0.2 mm 1 mps 637 mmHg 72%
    11:00 +25°C° 0.2 mm 1 mps 637 mmHg 69%
    12:00 +26°C° 0.2 mm 2 mps 637 mmHg 66%
    13:00 +25°C° 0.6 mm 2 mps 636 mmHg 70%
    14:00 +24°C° 0.6 mm 2 mps 636 mmHg 74%
    15:00 +23°C° 0.6 mm 2 mps 635 mmHg 78%
    16:00 +23°C° 0.7 mm 2 mps 635 mmHg 82%
    17:00 +22°C° 0.7 mm 1 mps 635 mmHg 85%
    18:00 +21°C° 0.7 mm 1 mps 635 mmHg 88%
    19:00 +21°C° 0.9 mm 1 mps 635 mmHg 90%
    20:00 +20°C° 0.9 mm 1 mps 636 mmHg 91%
    21:00 +20°C° 0.9 mm 1 mps 636 mmHg 92%
    22:00 +20°C° 1.7 mm 1 mps 636 mmHg 93%
    23:00 +20°C° 1.7 mm 1 mps 635 mmHg 93%
    Show more